Henderson, KY

3:49 AM CDT on July 22, 2019 (GMT -0500)
Henderson City-County

Weather History for KEHR - May, 2019

Change the Weather History Date:

Wednesday, May 15, 2019

  Actual Average Record
Temperature  
Mean Temperature 62 °F -  
Max Temperature 68 °F 77 °F 89 °F (2001)
Min Temperature 55 °F 54 °F 37 °F (2014)
Degree Days  
Heating Degree Days 4    
Growing Degree Days 12 (Base 50)    
Moisture  
Dew Point 56 °F    
Average Humidity 81    
Maximum Humidity 94    
Minimum Humidity 70    
Precipitation  
Precipitation 0.06 in - - ()
Sea Level Pressure  
Sea Level Pressure 30.03 in    
Wind  
Wind Speed 5 mph (South)    
Max Wind Speed 12 mph    
Max Gust Speed -    
Visibility 10 miles    
Events Rain    
Averages and records for this station are not official NWS values.
T = Trace of Precipitation, MM = Missing Value Source: NWS Daily Summary

Daily Weather History Graph

Daily Weather History Graph

Search for Another Location

Airport or City:

Astronomy

May. 15, 2019 Rise Set
Actual Time 5:40 AM CDT 7:53 PM CDT
Civil Twilight 5:11 AM CDT 8:23 PM CDT
Nautical Twilight 4:35 AM CDT 8:59 PM CDT
Astronomical Twilight 3:56 AM CDT 9:38 PM CDT
Moon 4:28 PM CDT (5/15) 4:00 AM CDT (5/15)
Length of Visible Light 15h 11m
Length of Day
14h 12m
Waxing Gibbous, 87% of the Moon is Illuminated
May 15
Waxing Gibbous
May 18
Full
May 26
Last Quarter
Jun 3
New
Jun 10
First Quarter

Hourly Weather History & Observations

Time (CDT) Temp. Dew Point Humidity Pressure Visibility Wind Dir Wind Speed Gust Speed Precip Events Conditions
12:56 AM 55.0 °F 48.0 °F 77% 30.05 in 10.0 mi Calm Calm - N/A   Clear
1:56 AM 55.9 °F 48.9 °F 77% 30.03 in 10.0 mi SW 3.5 mph - N/A   Clear
2:56 AM 57.9 °F 48.0 °F 70% 30.02 in 10.0 mi South 4.6 mph - N/A   Partly Cloudy
3:56 AM 57.0 °F 48.9 °F 74% 30.01 in 10.0 mi Calm Calm - N/A   Clear
5:56 AM 57.0 °F 48.9 °F 74% 30.01 in 10.0 mi South 6.9 mph - 0.00 in   Clear
6:56 AM 57.0 °F 50.0 °F 77% 30.04 in 10.0 mi SSW 8.1 mph - N/A   Clear
7:56 AM 57.0 °F 52.0 °F 83% 30.05 in 10.0 mi SSW 8.1 mph - 0.00 in   Scattered Clouds
8:56 AM 57.9 °F 52.0 °F 81% 30.07 in 10.0 mi SW 9.2 mph - N/A   Partly Cloudy
9:56 AM 55.9 °F 54.0 °F 93% 30.05 in 10.0 mi South 11.5 mph - 0.06 in Rain Light Rain
10:06 AM 55.4 °F 53.6 °F 94% 30.01 in 10.0 mi South 11.5 mph - 0.00 in Rain Light Rain
10:56 AM 61.0 °F 57.0 °F 87% 30.04 in 10.0 mi South 9.2 mph - 0.00 in   Clear
11:29 AM 62.6 °F 57.2 °F 82% 30.02 in 10.0 mi SSW 11.5 mph - N/A   Mostly Cloudy
11:56 AM 64.0 °F 57.9 °F 80% 30.05 in 10.0 mi South 10.4 mph - N/A   Overcast
12:56 PM 64.9 °F 57.9 °F 78% 30.04 in 10.0 mi South 8.1 mph - N/A   Overcast
1:56 PM 64.9 °F 57.9 °F 78% 30.04 in 10.0 mi South 8.1 mph - N/A   Overcast
2:56 PM 64.9 °F 57.9 °F 78% 30.02 in 10.0 mi South 5.8 mph - N/A   Mostly Cloudy
3:56 PM 66.9 °F 59.0 °F 76% 30.01 in 10.0 mi Calm Calm - N/A   Mostly Cloudy
4:56 PM 68.0 °F 59.0 °F 73% 30.01 in 10.0 mi SE 5.8 mph - N/A   Overcast
5:56 PM 68.0 °F 59.0 °F 73% 30.01 in 10.0 mi Calm Calm - N/A   Mostly Cloudy
6:56 PM 66.9 °F 60.1 °F 79% 30.00 in 10.0 mi SSW 4.6 mph - N/A   Mostly Cloudy
7:56 PM 66.0 °F 60.1 °F 81% 30.01 in 10.0 mi Calm Calm - N/A   Mostly Cloudy
8:12 PM 66.2 °F 60.8 °F 83% 29.98 in 10.0 mi Calm Calm - N/A   Mostly Cloudy
8:56 PM 64.9 °F 60.1 °F 84% 30.01 in 7.0 mi SE 3.5 mph - N/A   Mostly Cloudy
9:56 PM 63.0 °F 60.1 °F 90% 30.03 in 10.0 mi Calm Calm - N/A   Scattered Clouds
10:56 PM 62.1 °F 59.0 °F 90% 30.04 in 10.0 mi South 3.5 mph - N/A   Mostly Cloudy
11:56 PM 61.0 °F 57.9 °F 90% 30.03 in 10.0 mi SSE 5.8 mph - N/A   Clear